Home > Weather > Rzeszów > Past weeks

Flag for Poland Weather for the Past 2 Weeks in Rzeszów, Poland

Now
43 °F

Sunny.


Feels Like: 35 °F
Forecast: 40 / 49 °F
Wind: 17 mph from South

Location: Rzeszow-Jasionka

Current Time: Feb 7, 2016 at 10:54:42 AM

Latest Report: Feb 7, 2016 at 10:00 AM


Visibility: 10 mi

Pressure: 30.01 "Hg

Humidity: 57%

Dew point: 28 °F

Location of RzeszówLocation

Historic Weather in Rzeszów — Graph

°F

Rzeszów Temperature Yesterday

Maximum temperature yesterday: 41 °F (at 2:30 PM)
Minimum temperature yesterday: 28 °F (at 12:00 AM)
Average temperature yesterday: 35 °F

High & Low Weather Summary for the Past Weeks

 TemperatureHumidityPressure
High52 °F (Feb 2, 1:00 PM)100% (Jan 24, 3:30 PM)30.48 "Hg (Jan 24, 3:30 PM)
Low9 °F (Jan 23, 9:00 AM)57% (Jan 29, 3:00 PM)29.62 "Hg (Jan 31, 6:30 AM)
Average36 °F83%30.11 "Hg
* Reported Jan 23 9:00 AM — Feb 7 9:30 AM, Rzeszów, Weather by CustomWeather, © 2016

Note: Actual official high and low records may vary slightly from our data, if they occured in-between our weather recording intervals... More about our weather records

Advertising

Rzeszów Weather History for the Previous 24 Hours

 ConditionsComfort  
Time TempWeatherWind HumidityBarometerVisibility
9:30 AM
Sun, Feb 7
43 °FSunny.20 mph57%30.01 "Hg10 mi
9:00 AM41 °FPassing clouds.16 mph61%30.01 "HgN/A
8:30 AM41 °FSunny.22 mph57%30.01 "Hg10 mi
8:00 AM39 °FSunny.21 mph61%30.01 "Hg10 mi
7:30 AM39 °FSunny.20 mph61%30.01 "Hg10 mi
7:00 AM39 °FSunny.17 mph65%30.04 "Hg10 mi
6:30 AM39 °FClear.18 mph65%30.04 "Hg10 mi
6:00 AM39 °FClear.23 mph65%30.04 "Hg10 mi
5:30 AM39 °FClear.25 mph65%30.04 "Hg10 mi
5:00 AM39 °FClear.22 mph65%30.04 "Hg10 mi
4:30 AM39 °FClear.23 mph65%30.04 "Hg10 mi
4:00 AM39 °FClear.24 mph70%30.07 "Hg10 mi
3:30 AM39 °FClear.21 mph70%30.07 "Hg10 mi
3:00 AM37 °FClear.20 mph75%30.09 "Hg10 mi
2:30 AM37 °FClear.20 mph75%30.09 "Hg10 mi
2:00 AM37 °FClear.21 mph75%30.09 "Hg10 mi
1:30 AM37 °FClear.20 mph81%30.12 "Hg10 mi
1:00 AM37 °FClear.18 mph75%30.12 "Hg10 mi
12:00 AM37 °FClear.20 mph75%30.12 "Hg10 mi
11:00 PM
Sat, Feb 6
37 °FClear.18 mph75%30.12 "Hg10 mi
10:00 PM36 °FClear.15 mph81%30.15 "Hg10 mi
9:30 PM36 °FClear.14 mph75%30.15 "Hg10 mi
9:00 PM36 °FClear.13 mph75%30.15 "Hg10 mi
8:30 PM36 °FClear.13 mph75%30.18 "Hg10 mi
8:00 PM36 °FClear.13 mph75%30.18 "Hg10 mi
7:30 PM36 °FClear.14 mph75%30.18 "Hg10 mi
7:00 PM36 °FClear.10 mph75%30.18 "Hg10 mi
6:30 PM36 °FClear.10 mph75%30.18 "Hg10 mi
6:00 PM37 °FClear.7 mph65%30.21 "Hg10 mi
5:30 PM37 °FClear.8 mph65%30.21 "Hg10 mi
5:00 PM37 °FPassing clouds.7 mph65%30.21 "HgN/A
4:30 PM37 °FScattered clouds.9 mph65%30.21 "HgN/A
4:00 PM39 °FPartly sunny.10 mph61%30.21 "HgN/A
3:30 PM39 °FPartly sunny.12 mph61%30.21 "HgN/A
3:00 PM41 °FPartly sunny.13 mph57%30.21 "HgN/A
2:30 PM41 °FPartly sunny.13 mph57%30.24 "HgN/A
2:00 PM39 °FPartly sunny.10 mph61%30.24 "HgN/A
1:30 PM39 °FOvercast.13 mph61%30.24 "HgN/A
1:00 PM37 °FOvercast.14 mph65%30.24 "HgN/A
12:30 PM37 °FOvercast.15 mph65%30.27 "HgN/A
12:00 PM37 °FOvercast.13 mph65%30.27 "HgN/A
11:30 AM37 °FPartly sunny.12 mph65%30.27 "HgN/A
11:00 AM37 °FOvercast.13 mph65%30.27 "HgN/A
10:30 AM37 °FBroken clouds.9 mph65%30.27 "HgN/A
10:00 AM36 °FPartly sunny.9 mph70%30.27 "HgN/A
Weather by CustomWeather, © 2016

See weather overviewHow to use our weather pages